This demonstration page uses our WeatherBlox Daily Observations layout. Learn more.

Left ArrowRight Arrow

39.51506, -84.39828

Hourly Observations for January 22, 2021

Temp ( °F °C ) Dew Point ( °F °C ) Humidity (%) Winds ( mph kmh ) Pressure ( in mb ) Visibility ( mi km ) Precip ( " mm )
12:15 am 00:15 Clear 34 1.2 22 -5.3 62 62 WSW 8 13 29.88 1012 10 16.0934 N/A
12:35 am 00:35 Clear 38 3.2 24 -4.7 57 57 W 13 20 29.88 1012 10 16.0934 N/A
12:55 am 00:55 Clear 38 3.4 24 -4.6 56 56 W 12 19 29.89 1012 10 16.0934 N/A
1:15 am 01:15 Clear 38 3.2 23 -4.9 56 56 W 13 20 29.89 1012 10 16.0934 N/A
1:35 am 01:35 Clear 35 1.7 23 -5.2 61 61 W 5 7 29.9 1013 10 16.0934 N/A
1:55 am 01:55 Clear 35 1.9 23 -5 61 61 W 10 17 29.9 1013 10 16.0934 N/A
2:15 am 02:15 Clear 35 1.7 23 -5.2 61 61 W 10 17 29.91 1013 10 16.0934 N/A
2:35 am 02:35 Clear 35 1.5 22 -5.3 61 61 WNW 14 22 29.92 1013 10 16.0934 N/A
2:55 am 02:55 Clear 34 1.1 22 -5.6 61 61 W 13 20 29.92 1013 10 16.0934 N/A
3:15 am 03:15 Clear 33 0.7 22 -5.6 63 63 W 10 17 29.93 1014 10 16.0934 N/A
3:35 am 03:35 Clear 33 0.3 22 -5.8 64 64 W 8 13 29.93 1014 10 16.0934 N/A
3:55 am 03:55 Clear 32 undefined 22 -5.6 66 66 W 12 19 29.94 1014 10 16.0934 N/A
4:15 am 04:15 Clear 32 -0.2 22 -5.8 66 66 W 9 15 29.94 1014 10 16.0934 N/A
4:35 am 04:35 Clear 31 -0.7 21 -6 68 68 WSW 8 13 29.94 1014 10 16.0934 N/A
4:55 am 04:55 Clear 30 -1.2 21 -6 70 70 WSW 7 11 29.94 1014 10 16.0934 N/A
5:15 am 05:15 Clear 29 -1.7 21 -6.3 71 71 SW 6 9 29.95 1014 10 16.0934 N/A
5:35 am 05:35 Clear 29 -1.9 21 -6.3 72 72 SW 6 9 29.95 1014 10 16.0934 N/A
5:55 am 05:55 Clear 27 -2.9 20 -6.5 77 77 WSW 8 13 29.96 1015 10 16.0934 N/A
6:15 am 06:15 Clear 27 -2.9 21 -6.1 79 79 WSW 8 13 29.97 1015 10 16.0934 N/A
6:35 am 06:35 Clear 28 -2.4 21 -5.9 77 77 W 8 13 29.97 1015 10 16.0934 N/A
6:55 am 06:55 Clear 28 -2.2 22 -5.5 78 78 W 9 15 29.98 1015 10 16.0934 N/A
7:15 am 07:15 Clear 28 -2 22 -5.4 78 78 W 6 9 29.99 1016 10 16.0934 N/A
7:35 am 07:35 Clear 29 -1.7 23 -5.2 77 77 W 5 7 29.99 1016 10 16.0934 N/A
7:55 am 07:55 Mostly Cloudy 28 -2.4 22 -5.5 80 80 SW 3 6 30 1016 10 16.0934 N/A
8:15 am 08:15 Partly Cloudy 28 -2 22 -5.4 78 78 WSW 5 7 30.01 1016 10 16.0934 N/A
8:35 am 08:35 Mostly Cloudy 29 -1.6 24 -4.7 80 80 SW 6 9 30.02 1017 10 16.0934 N/A
8:55 am 08:55 Cloudy 30 -1.1 24 -4.4 79 79 SW 7 11 30.04 1017 10 16.0934 N/A
9:15 am 09:15 Mostly Cloudy 31 -0.4 24 -4.7 73 73 W 9 15 30.05 1017 10 16.0934 N/A
9:35 am 09:35 Cloudy with Haze 32 -0.2 23 -4.9 71 71 WNW 12 19 30.05 1017 4 6.43736 N/A
9:55 am 09:55 Mostly Cloudy 32 0.1 23 -4.9 69 69 W 13 20 30.05 1018 10 16.0934 N/A
10:15 am 10:15 Partly Cloudy 32 0.2 23 -5.2 67 67 W 14 22 30.06 1018 10 16.0934 N/A
10:35 am 10:35 Mostly Cloudy 32 undefined 22 -5.4 67 67 W 13 20 30.08 1018 10 16.0934 N/A
10:55 am 10:55 Partly Cloudy 32 0.2 22 -5.6 65 65 NW 15 24 30.08 1019 10 16.0934 N/A
11:15 am 11:15 Partly Cloudy 33 0.6 22 -5.6 64 64 WNW 14 22 30.09 1019 10 16.0934 N/A
11:35 am 11:35 Mostly Cloudy 33 0.8 22 -5.5 63 63 WNW 12 19 30.09 1019 10 16.0934 N/A
11:55 am 11:55 Mostly Cloudy 33 0.5 22 -5.7 64 64 WNW 7 11 30.09 1019 10 16.0934 N/A
12:15 pm 12:15 Partly Cloudy 34 1 21 -6 60 60 WNW 12 19 30.09 1019 10 16.0934 N/A
12:35 pm 12:35 Mostly Cloudy 34 1 21 -6 60 60 WNW 13 20 30.09 1019 10 16.0934 N/A
12:55 pm 12:55 Cloudy 33 0.7 21 -6.3 60 60 W 16 26 30.1 1019 10 16.0934 N/A
1:15 pm 13:15 Mostly Cloudy 33 0.4 20 -6.8 59 59 W 14 22 30.1 1019 10 16.0934 N/A
1:35 pm 13:35 Partly Cloudy 33 0.8 19 -7 56 56 W 8 13 30.09 1019 10 16.0934 N/A
1:55 pm 13:55 Partly Cloudy 35 1.7 19 -7 53 53 W 20 31 30.09 1019 10 16.0934 N/A
2:15 pm 14:15 Sunny 35 1.8 18 -7.6 50 50 W 9 15 30.09 1019 10 16.0934 N/A
2:35 pm 14:35 Sunny 36 2.3 19 -7.5 49 49 W 15 24 30.09 1019 10 16.0934 N/A
2:55 pm 14:55 Sunny 36 2.2 16 -8.8 44 44 WNW 15 24 30.09 1019 10 16.0934 N/A
3:15 pm 15:15 Sunny 35 1.9 16 -8.8 45 45 WNW 14 22 30.1 1019 10 16.0934 N/A
3:35 pm 15:35 Sunny 35 1.9 15 -9.3 44 44 WNW 14 22 30.1 1019 10 16.0934 N/A
3:55 pm 15:55 Sunny 35 1.5 16 -9.1 46 46 WNW 13 20 30.11 1020 10 16.0934 N/A
4:15 pm 16:15 Sunny 35 1.4 14 -9.8 43 43 NW 14 22 30.11 1020 10 16.0934 N/A
4:35 pm 16:35 Sunny 34 1.2 14 -9.8 44 44 WNW 12 19 30.12 1020 10 16.0934 N/A
4:55 pm 16:55 Sunny 33 0.8 14 -10.1 44 44 W 14 22 30.13 1020 10 16.0934 N/A
5:15 pm 17:15 Sunny 33 0.4 14 -10.2 45 45 W 12 19 30.14 1021 10 16.0934 N/A
5:35 pm 17:35 Sunny 31 -0.4 13 -10.4 47 47 WNW 12 19 30.16 1021 10 16.0934 N/A
5:55 pm 17:55 Clear 30 -1.2 13 -10.4 50 50 WNW 8 13 30.17 1022 10 16.0934 N/A
6:15 pm 18:15 Clear 29 -1.6 14 -10.1 53 53 NW 6 9 30.17 1022 10 16.0934 N/A
6:35 pm 18:35 Clear 28 -2 14 -10.1 54 54 WNW 8 13 30.19 1022 10 16.0934 N/A
6:55 pm 18:55 Clear 29 -1.9 13 -10.5 52 52 WNW 8 13 30.19 1022 10 16.0934 N/A
7:15 pm 19:15 Clear 28 -2.5 13 -10.6 54 54 WNW 7 11 30.19 1022 10 16.0934 N/A
7:35 pm 19:35 Clear 27 -2.6 13 -10.4 55 55 NW 8 13 30.2 1023 10 16.0934 N/A
7:55 pm 19:55 Clear 27 -2.8 13 -10.6 55 55 NW 9 15 30.21 1023 10 16.0934 N/A
8:15 pm 20:15 Clear 27 -2.8 13 -10.6 55 55 NW 8 13 30.22 1023 10 16.0934 N/A
8:35 pm 20:35 Clear 26 -3.3 13 -10.5 58 58 NW 6 9 30.22 1024 10 16.0934 N/A
8:55 pm 20:55 Clear 26 -3.4 13 -10.7 57 57 NW 8 13 30.22 1024 10 16.0934 N/A
9:15 pm 21:15 Clear 25 -3.7 11 -11.4 56 56 NW 9 15 30.24 1024 10 16.0934 N/A
9:35 pm 21:35 Clear 25 -4.1 11 -11.5 57 57 NW 12 19 30.25 1024 10 16.0934 N/A
9:55 pm 21:55 Clear 24 -4.4 11 -11.4 59 59 NW 6 9 30.25 1024 10 16.0934 N/A
10:15 pm 22:15 Clear 24 -4.6 12 -11.3 60 60 NW 9 15 30.26 1025 10 16.0934 N/A
10:35 pm 22:35 Clear 23 -4.8 13 -10.8 63 63 NNW 9 15 30.27 1025 10 16.0934 N/A
10:55 pm 22:55 Clear 22 -5.4 13 -10.3 69 69 NNW 9 15 30.29 1026 10 16.0934 N/A
11:15 pm 23:15 Clear 21 -6 13 -10.5 71 71 N 7 11 30.3 1026 10 16.0934 N/A
11:35 pm 23:35 Clear 20 -6.5 13 -10.4 74 74 N 5 7 30.31 1027 10 16.0934 N/A
11:55 pm 23:55 Clear 20 -6.7 13 -10.7 74 74 N 5 7 30.31 1027 10 16.0934 N/A

Powered by AerisWeather